Miscellaneous Local Product
Issued by NWS North Platte, NE

Home | Current Version | Previous Version | Text Only | Print | Product List | Glossary On
Versions: 1 2 3 4 5 6 7 8 9 10 11 12 13 14 15 16 17 18 19 20 21 22 23 24 25 26 27 28 29 30 31 32 33 34 35 36 37 38 39 40 41 42 43 44 45 46 47 48 49 50
000
AXUS43 KLBF 231410
MISLBF


WESTERN AND NORTH CENTRAL NEBRASKA HOURLY WEATHER ROUNDUP
NATIONAL WEATHER SERVICE NORTH PLATTE NE
900 AM CDT WED AUG 23 2017

NOTE: "FAIR" INDICATES FEW OR NO CLOUDS BELOW 12,000 FEET WITH NO
SIGNIFICANT WEATHER AND/OR OBSTRUCTIONS TO VISIBILITY.

NOTE: STATIONS NOT REPORTING VARIABLES SUCH AS SKY/WEATHER OR
PRESSURE ARE PROVIDED BY RAWS AND APRS NETWORKS AND ARE NOT UNDER
NATIONAL WEATHER SERVICE QUALITY CONTROL.

...OBSERVATIONS IN AND NEAR THE EASTERN PANHANDLE OF NEBRASKA...

CITY           SKY/WX    TMP DP  RH WIND       PRES   REMARKS
PINE RIDGE     SUNNY     66  52  60 SW15G24   30.08F
GORDON         FAIR      65  50  58 SW9G16    30.11S
CHADRON        SUNNY     67  54  63 S10       30.08S
ALLIANCE       SUNNY     60  51  72 S14       30.13S
SIDNEY         SUNNY     62  54  74 S15       30.17R
$$

...OBSERVATIONS IN NORTHERN NEBRASKA AND FAR SOUTHERN SOUTH DAKOTA...

CITY           SKY/WX    TMP DP  RH WIND       PRES   REMARKS
WINNER         FAIR      68  56  65 S8        30.08F
VALENTINE      MOSUNNY   68  51  54 SW13      30.10S
THEDFORD       SUNNY     66  50  54 S18       30.15S
AINSWORTH      SUNNY     65  54  68 SW14      30.12S
O`NEILL        MOSUNNY   63  57  79 S9        30.15S
ORD            SUNNY     61  53  75 S8        30.15S
BROKEN BOW     SUNNY     64  52  64 SW10      30.16S
HALSEY           N/A     62  50  65 S6G13       N/A
BUTTE            N/A     57  53  88 S7          N/A
CHAMBERS         N/A     64  55  74 W6          N/A
EWING            N/A     62  57  85 S5          N/A
$$

...OBSERVATIONS IN SOUTHWEST NEBRASKA AND FAR NORTHEAST COLORADO...

CITY           SKY/WX    TMP DP  RH WIND       PRES   REMARKS
WRAY           FAIR      63  50  63 S14       30.18S
HOLYOKE        FAIR      63  54  72 S12G18    30.18S
IMPERIAL       MOSUNNY   63  47  55 S13G22    30.19R
OGALLALA       SUNNY     64  50  60 S9        30.16F
NORTH PLATTE   SUNNY     63  52  67 S8        30.18R
MCCOOK         SUNNY     63  51  65 S13       30.19R
LEXINGTON      SUNNY     64  53  69 S8        30.19S
STAPLETON        N/A     64  53  68 CALM        N/A
GOTHENBURG       N/A     61  46  58 S5          N/A
CALLAWAY         N/A     57  53  86 S8          N/A
$$

...OBSERVATIONS IN CENTRAL LINCOLN COUNTY AREA...

CITY           SKY/WX    TMP DP  RH WIND       PRES   REMARKS
N.P. AIRPORT   SUNNY     63  52  67 S8        30.18R
N.P. DOWNTOWN    N/A     65  53  65 CALM        N/A
N.P. SOUTHEAST   N/A     64  53  67 S5          N/A
N.P. HILLCREST   N/A     65  53  65 S12         N/A
$$

...SOME OBSERVATIONS FROM AROUND THE REGION...

CITY           SKY/WX    TMP DP  RH WIND       PRES   REMARKS
DENVER         CLOUDY    67  47  48 W8        30.20R
LIMON          CLOUDY    57  57 100 S12       30.24F FOG
ASPEN          CLOUDY    56  44  64 S3        30.42S
LARAMIE        CLOUDY    56  40  55 S3        30.33R
CASPER         SUNNY     60  44  55 W10       30.19R
CHEYENNE       SUNNY     68  41  37 NW9       30.23S
SCOTTSBLUFF    SUNNY     61  53  75 E7        30.13R
GRAND ISLAND   SUNNY     64  54  69 S12       30.18S
OMAHA          SUNNY     65  57  75 NE3       30.17S
SIOUX FALLS    MOSUNNY   64  57  78 CALM      30.15S
PIERRE         SUNNY     64  53  67 SE13      30.04F
RAPID CITY     SUNNY     66  52  60 N6        30.06S
BISMARCK       SUNNY     57  51  80 E5        30.07F
KANSAS CITY    SUNNY     65  57  75 CALM      30.17R
HILL CITY      SUNNY     63  53  70 S9        30.21S
WICHITA        SUNNY     69  53  56 E12       30.17S
DODGE CITY     SUNNY     63  50  62 SE9       30.21S
OKLAHOMA CITY  MOSUNNY   71  65  81 E13       30.11S
DALLAS         LGT RAIN  78  73  84 NE3       30.02S
AMARILLO       CLOUDY    66  66 100 E9        30.22S FOG
$$




USA.gov is the U.S. government's official web portal to all federal, state and local government web resources and services.